Flag for U.S.A. Weather past 2 weeks in Fairfax, Virginia, U.S.A.

Now
79 °F

Passing clouds.


Feels Like: 81 °F
Forecast: 71 / 89 °F
Wind: 5 mph from South

Location: Washington-Dulles International Airport

Current Time: Aug 4, 2015 at 11:02:04 AM

Latest Report: Aug 4, 2015 at 9:52 AM


Visibility: 10 mi

Pressure: 29.94 "Hg

Humidity: 62%

Dew point: 65 °F

Location of FairfaxLocation

Historic Weather in Fairfax — Graph

°F

Fairfax temperature yesterday

Maximum temperature yesterday: 88 °F (at 3:52 PM)
Minimum temperature yesterday: 65 °F (at 5:52 AM)
Average temperature yesterday: 78 °F

Past Weeks' High & Low Weather Summary

 TemperatureHumidityPressure
High91 °F (Jul 20, 3:52 PM)100% (Jul 29, 5:52 AM)30.02 "Hg (Jul 29, 5:52 AM)
Low59 °F (Jul 24, 5:52 AM)35% (Jul 24, 11:52 AM)29.64 "Hg (Jul 21, 5:52 PM)
Average77 °F68%29.91 "Hg
* Reported Jul 20 9:52 AM — Aug 4 9:52 AM, Fairfax, Weather by CustomWeather, © 2015

Note: Actual official high and low records may vary slightly from our data, if they occured in-between our weather recording intervals... More about our weather records

Advertising

Fairfax weather history for previous 24 hours

 ConditionsComfort  
Time TempWeatherWind HumidityBarometerVisibility
9:52 AM
Tue, Aug 4
79 °FPassing clouds.5 mph62%29.94 "Hg10 mi
8:52 AM76 °FPassing clouds.5 mph64%29.93 "Hg10 mi
7:52 AM72 °FScattered clouds.5 mph73%29.92 "Hg10 mi
6:52 AM67 °FPassing clouds.No wind85%29.91 "Hg10 mi
5:52 AM69 °FPassing clouds.No wind76%29.89 "Hg10 mi
4:52 AM72 °FThunderstorms. Mostly cloudy.14 mph66%29.90 "Hg10 mi
3:52 AM73 °FPassing clouds.7 mph74%29.85 "Hg10 mi
2:52 AM74 °FPassing clouds.8 mph71%29.84 "Hg10 mi
1:52 AM74 °FPassing clouds.8 mph71%29.83 "Hg10 mi
12:52 AM74 °FPassing clouds.7 mph71%29.83 "Hg10 mi
11:52 PM
Mon, Aug 3
77 °FPassing clouds.8 mph62%29.83 "Hg10 mi
10:52 PM78 °FPassing clouds.8 mph60%29.82 "Hg10 mi
9:52 PM78 °FPassing clouds.7 mph62%29.83 "Hg10 mi
8:52 PM80 °FScattered clouds.6 mph58%29.81 "Hg10 mi
7:52 PM83 °FScattered clouds.7 mph53%29.81 "Hg10 mi
6:52 PM86 °FScattered clouds.12 mph46%29.81 "Hg10 mi
5:52 PM88 °FScattered clouds.9 mph42%29.80 "Hg10 mi
4:52 PM87 °FPartly sunny.13 mph42%29.82 "Hg10 mi
3:52 PM88 °FPartly sunny.13 mph42%29.82 "Hg10 mi
2:52 PM87 °FPartly sunny.10 mph42%29.83 "Hg10 mi
1:52 PM87 °FScattered clouds.12 mph43%29.83 "Hg10 mi
12:52 PM87 °FScattered clouds.8 mph36%29.84 "Hg10 mi
11:52 AM87 °FScattered clouds.6 mph39%29.86 "Hg10 mi
Weather by CustomWeather, © 2015

See weather overviewHow to use our weather pages